Weather History for Burlington, VT

Change the Weather History Date:

Friday, March 7, 2014

  Actual Average Record
Temperature  
Mean Temperature 26 °F 27 °F  
Max Temperature 36 °F 36 °F 63 °F (1974)
Min Temperature 15 °F 18 °F -18 °F (2007)
Degree Days  
Heating Degree Days 39 38  
Month to date heating degree days 364 271  
Since 1 July heating degree days 5829 5681  
Cooling Degree Days 0 0  
Month to date cooling degree days 0 0  
Year to date cooling degree days 0 0  
Moisture  
Dew Point 5 °F    
Average Humidity 40    
Maximum Humidity 49    
Minimum Humidity 31    
Precipitation  
Precipitation 0.00 in 0.07 in 1.34 in (2011)
Month to date precipitation 0.04 0.46  
Year to date precipitation 4.32 4.28  
Snow  
Snow 0.00 in 0.70 in 17.10 in (2011)
Month to date snowfall 1.9 4.4  
Since 1 July snowfall 60.2 65.2  
Snow Depth 5.00 in    
Sea Level Pressure  
Sea Level Pressure 30.18 in    
Wind  
Wind Speed 14 mph (South)    
Max Wind Speed 28 mph    
Max Gust Speed 35 mph    
Visibility 10 miles    
Events      
T = Trace of Precipitation, MM = Missing Value Source: NWS Daily Summary

Daily Weather History Graph

Daily Weather History Graph

Search for Another Location

Airport:

Trip Planner

Search our weather history database for the weather conditions in past years. The results will help you decide how hot, cold, wet, or windy it might be!

Date:

Astronomy

Mar. 07, 2014 Rise Set
Actual Time 6:19 AM EST 5:48 PM EST
Civil Twilight 5:50 AM EST 6:17 PM EST
Nautical Twilight 5:16 AM EST 6:51 PM EST
Astronomical Twilight 4:42 AM EST 7:25 PM EST
Moon 9:56 AM EST (3/7) 12:04 AM EST (3/7)
Length of Visible Light 12h 27m
Length of Day
11h 28m
Waxing Crescent, 42% of the Moon is Illuminated
Mar 7
Waxing Crescent
Mar 8
First Quarter
Mar 16
Full
Mar 23
Last Quarter
Mar 30
New

Hourly Weather History & Observations

Time (EST) Temp. Windchill Dew Point Humidity Pressure Visibility Wind Dir Wind Speed Gust Speed Precip Events Conditions
12:54 AM 18.0 °F 7.7 °F -2.9 °F 40% 30.44 in 10.0 mi South 8.1 mph - N/A   Clear
1:54 AM 18.0 °F 6.9 °F -4.0 °F 38% 30.41 in 10.0 mi SSE 9.2 mph - N/A   Clear
2:54 AM 19.0 °F 10.0 °F -6.0 °F 33% 30.38 in 10.0 mi South 6.9 mph - N/A   Clear
3:54 AM 19.0 °F 6.8 °F -7.1 °F 31% 30.35 in 10.0 mi South 11.5 mph - N/A   Clear
4:54 AM 19.0 °F 6.8 °F -8.0 °F 30% 30.33 in 10.0 mi South 11.5 mph - N/A   Clear
5:54 AM 18.0 °F 7.7 °F -8.0 °F 31% 30.34 in 10.0 mi SSE 8.1 mph - N/A   Clear
6:54 AM 19.0 °F 5.0 °F -5.1 °F 34% 30.31 in 10.0 mi SSE 15.0 mph 20.7 mph N/A   Clear
7:54 AM 21.9 °F 9.2 °F -2.9 °F 34% 30.32 in 10.0 mi South 13.8 mph - N/A   Scattered Clouds
8:54 AM 23.0 °F 7.6 °F 1.0 °F 39% 30.30 in 10.0 mi South 21.9 mph 28.8 mph N/A   Scattered Clouds
9:54 AM 25.0 °F 10.2 °F 3.9 °F 41% 30.28 in 9.0 mi South 21.9 mph 31.1 mph N/A   Scattered Clouds
10:54 AM 27.0 °F 12.8 °F 8.1 °F 45% 30.23 in 10.0 mi South 21.9 mph 33.4 mph N/A   Scattered Clouds
11:54 AM 30.0 °F 17.5 °F 6.1 °F 36% 30.19 in 10.0 mi South 19.6 mph 29.9 mph N/A   Scattered Clouds
12:54 PM 32.0 °F 21.2 °F 7.0 °F 35% 30.15 in 10.0 mi South 16.1 mph 26.5 mph N/A   Scattered Clouds
1:54 PM 35.1 °F 23.8 °F 8.1 °F 33% 30.12 in 10.0 mi South 20.7 mph 25.3 mph N/A   Scattered Clouds
2:54 PM 36.0 °F 25.3 °F 10.0 °F 34% 30.08 in 10.0 mi South 19.6 mph 26.5 mph N/A   Scattered Clouds
3:54 PM 36.0 °F 26.7 °F 12.0 °F 37% 30.05 in 10.0 mi South 15.0 mph 23.0 mph N/A   Scattered Clouds
4:54 PM 36.0 °F 25.6 °F 12.9 °F 39% 30.02 in 10.0 mi South 18.4 mph 27.6 mph N/A   Scattered Clouds
5:54 PM 35.1 °F 26.4 °F 12.9 °F 40% 30.01 in 10.0 mi SSW 12.7 mph - N/A   Scattered Clouds
6:54 PM 34.0 °F 24.6 °F 14.0 °F 44% 30.00 in 10.0 mi South 13.8 mph - N/A   Clear
7:54 PM 33.1 °F 23.9 °F 15.1 °F 48% 29.99 in 10.0 mi South 12.7 mph - N/A   Clear
8:54 PM 32.0 °F 23.6 °F 16.0 °F 52% 29.99 in 10.0 mi South 10.4 mph - N/A   Clear
9:54 PM 32.0 °F 23.0 °F 16.0 °F 52% 29.96 in 10.0 mi South 11.5 mph - N/A   Clear
10:54 PM 32.0 °F 24.8 °F 15.1 °F 50% 29.93 in 10.0 mi South 8.1 mph - N/A   Clear
11:54 PM 30.9 °F 23.5 °F 16.0 °F 54% 29.91 in 10.0 mi South 8.1 mph - N/A   Clear